• In France
  • List of Countries
  • For 7 days
  • Water Temperature
  • Satellite Maps
  • Weather Map
  • Weather Widgets
  • user-avatar
    Login

    Hourly Weather San José

    Today, 21 May, Monday

    Time Temperature Precipitation Wind Pressure Humidity
    00:00 +18°C° 0 mm 0 mps 662 mmHg 89%
    01:00 +18°C° 0.1 mm 0 mps 662 mmHg 89%
    02:00 +18°C° 0.1 mm 0 mps 661 mmHg 89%
    03:00 +18°C° 0.1 mm 0 mps 661 mmHg 88%
    04:00 +18°C° 0.1 mm 0 mps 661 mmHg 87%
    05:00 +18°C° 0.1 mm 0 mps 661 mmHg 86%
    06:00 +18°C° 0.1 mm 0 mps 662 mmHg 85%
    07:00 +20°C° 0.1 mm 0 mps 662 mmHg 79%
    08:00 +22°C° 0.1 mm 0 mps 663 mmHg 72%
    09:00 +26°C° 0.1 mm 1 mps 664 mmHg 66%
    10:00 +26°C° 0.3 mm 1 mps 664 mmHg 65%
    11:00 +26°C° 0.3 mm 1 mps 663 mmHg 65%
    12:00 +27°C° 0.3 mm 1 mps 663 mmHg 65%
    13:00 +26°C° 1.2 mm 1 mps 663 mmHg 69%
    14:00 +25°C° 1.2 mm 1 mps 662 mmHg 72%
    15:00 +25°C° 1.2 mm 1 mps 661 mmHg 76%
    16:00 +24°C° 2.2 mm 1 mps 661 mmHg 81%
    17:00 +23°C° 2.2 mm 1 mps 661 mmHg 85%
    18:00 +22°C° 2.2 mm 1 mps 661 mmHg 90%
    19:00 +21°C° 3.5 mm 1 mps 661 mmHg 90%
    20:00 +19°C° 3.5 mm 0 mps 662 mmHg 91%
    21:00 +19°C° 3.5 mm 0 mps 662 mmHg 91%
    22:00 +19°C° 3.9 mm 0 mps 662 mmHg 91%
    23:00 +19°C° 3.9 mm 0 mps 662 mmHg 90%

    Tomorrow, 22 May, Tuesday

    Time Temperature Precipitation Wind Pressure Humidity
    00:00 +19°C° 3.9 mm 0 mps 662 mmHg 89%
    01:00 +19°C° 0.8 mm 0 mps 662 mmHg 89%
    02:00 +19°C° 0.8 mm 0 mps 661 mmHg 89%
    03:00 +18°C° 0.8 mm 0 mps 661 mmHg 89%
    04:00 +18°C° 0.1 mm 0 mps 661 mmHg 88%
    05:00 +19°C° 0.1 mm 0 mps 661 mmHg 87%
    06:00 +19°C° 0.1 mm 0 mps 661 mmHg 87%
    07:00 +20°C° 0 mm 0 mps 662 mmHg 80%
    08:00 +22°C° 0 mm 0 mps 663 mmHg 73%
    09:00 +26°C° 0 mm 1 mps 664 mmHg 67%
    10:00 +26°C° 0.2 mm 1 mps 664 mmHg 66%
    11:00 +26°C° 0.2 mm 1 mps 663 mmHg 65%
    12:00 +27°C° 0.2 mm 1 mps 663 mmHg 65%
    13:00 +26°C° 0.9 mm 1 mps 663 mmHg 69%
    14:00 +25°C° 0.9 mm 1 mps 662 mmHg 74%
    15:00 +24°C° 0.9 mm 1 mps 661 mmHg 78%
    16:00 +23°C° 2 mm 1 mps 661 mmHg 83%
    17:00 +22°C° 2 mm 1 mps 661 mmHg 87%
    18:00 +21°C° 2 mm 1 mps 661 mmHg 92%
    19:00 +21°C° 2 mm 1 mps 662 mmHg 92%
    20:00 +21°C° 2 mm 1 mps 662 mmHg 91%
    21:00 +21°C° 2 mm 1 mps 663 mmHg 91%
    22:00 +19°C° 0.8 mm 0 mps 662 mmHg 90%
    23:00 +19°C° 0.8 mm 0 mps 662 mmHg 90%

    Day after tomorrow, 23 May, Wednesday

    Time Temperature Precipitation Wind Pressure Humidity
    00:00 +19°C° 0.8 mm 0 mps 662 mmHg 89%
    01:00 +18°C° 0.3 mm 0 mps 662 mmHg 89%
    02:00 +18°C° 0.3 mm 0 mps 661 mmHg 89%
    03:00 +18°C° 0.3 mm 0 mps 661 mmHg 90%
    04:00 +18°C° 0.4 mm 0 mps 661 mmHg 89%
    05:00 +18°C° 0.4 mm 0 mps 662 mmHg 88%
    06:00 +18°C° 0.4 mm 0 mps 662 mmHg 88%
    07:00 +19°C° 0.3 mm 0 mps 663 mmHg 84%
    08:00 +20°C° 0.3 mm 0 mps 663 mmHg 81%
    09:00 +21°C° 0.3 mm 0 mps 664 mmHg 78%
    10:00 +24°C° 0.2 mm 1 mps 664 mmHg 75%
    11:00 +25°C° 0.2 mm 1 mps 664 mmHg 73%
    12:00 +25°C° 0.2 mm 1 mps 664 mmHg 70%
    13:00 +25°C° 0.5 mm 1 mps 663 mmHg 72%
    14:00 +25°C° 0.5 mm 1 mps 663 mmHg 74%
    15:00 +24°C° 0.5 mm 1 mps 662 mmHg 76%
    16:00 +23°C° 0.9 mm 1 mps 662 mmHg 80%
    17:00 +22°C° 0.9 mm 1 mps 662 mmHg 84%
    18:00 +19°C° 0.9 mm 0 mps 662 mmHg 88%
    19:00 +19°C° 0.4 mm 0 mps 662 mmHg 89%
    20:00 +19°C° 0.4 mm 0 mps 663 mmHg 89%
    21:00 +19°C° 0.4 mm 0 mps 663 mmHg 90%
    22:00 +19°C° 0.2 mm 0 mps 663 mmHg 90%
    23:00 +19°C° 0.2 mm 0 mps 663 mmHg 90%

    24 May, Thursday

    Time Temperature Precipitation Wind Pressure Humidity
    00:00 +19°C° 0.2 mm 0 mps 663 mmHg 90%
    01:00 +18°C° 0.1 mm 0 mps 662 mmHg 90%
    02:00 +18°C° 0.1 mm 0 mps 662 mmHg 90%
    03:00 +18°C° 0.1 mm 0 mps 662 mmHg 90%
    04:00 +18°C° 0.1 mm 0 mps 662 mmHg 89%
    05:00 +19°C° 0.1 mm 0 mps 662 mmHg 89%
    06:00 +19°C° 0.1 mm 0 mps 662 mmHg 88%
    07:00 +21°C° 0.1 mm 0 mps 663 mmHg 81%
    08:00 +24°C° 0.1 mm 1 mps 664 mmHg 73%
    09:00 +26°C° 0.1 mm 1 mps 665 mmHg 66%
    10:00 +26°C° 0.6 mm 1 mps 665 mmHg 67%
    11:00 +26°C° 0.6 mm 1 mps 664 mmHg 68%
    12:00 +26°C° 0.6 mm 1 mps 664 mmHg 69%
    13:00 +26°C° 1.2 mm 1 mps 663 mmHg 71%
    14:00 +25°C° 1.2 mm 1 mps 663 mmHg 73%
    15:00 +25°C° 1.2 mm 1 mps 662 mmHg 75%
    16:00 +24°C° 1.3 mm 1 mps 662 mmHg 79%
    17:00 +23°C° 1.3 mm 1 mps 662 mmHg 83%
    18:00 +20°C° 1.3 mm 0 mps 662 mmHg 87%
    19:00 +20°C° 1.1 mm 0 mps 663 mmHg 88%
    20:00 +19°C° 1.1 mm 0 mps 663 mmHg 89%
    21:00 +19°C° 1.1 mm 0 mps 663 mmHg 90%
    22:00 +19°C° 0.7 mm 0 mps 663 mmHg 90%
    23:00 +19°C° 0.7 mm 0 mps 663 mmHg 90%

    25 May, Friday

    Time Temperature Precipitation Wind Pressure Humidity
    00:00 +19°C° 0.7 mm 0 mps 663 mmHg 90%
    01:00 +18°C° 0.4 mm 0 mps 662 mmHg 90%
    02:00 +18°C° 0.4 mm 0 mps 662 mmHg 91%
    03:00 +18°C° 0.4 mm 0 mps 661 mmHg 91%
    04:00 +18°C° 0.2 mm 0 mps 662 mmHg 90%
    05:00 +19°C° 0.2 mm 0 mps 662 mmHg 89%
    06:00 +19°C° 0.2 mm 0 mps 662 mmHg 89%
    07:00 +20°C° 0.2 mm 0 mps 663 mmHg 83%
    08:00 +22°C° 0.2 mm 0 mps 664 mmHg 77%
    09:00 +25°C° 0.2 mm 1 mps 664 mmHg 71%
    10:00 +26°C° 0.6 mm 1 mps 664 mmHg 70%
    11:00 +26°C° 0.6 mm 1 mps 663 mmHg 69%
    12:00 +26°C° 0.6 mm 1 mps 663 mmHg 68%
    13:00 +26°C° 2 mm 1 mps 662 mmHg 71%
    14:00 +25°C° 2 mm 1 mps 662 mmHg 75%
    15:00 +24°C° 2 mm 1 mps 661 mmHg 78%
    16:00 +23°C° 3.3 mm 1 mps 661 mmHg 82%
    17:00 +22°C° 3.3 mm 1 mps 661 mmHg 86%
    18:00 +20°C° 3.3 mm 0 mps 661 mmHg 90%
    19:00 +19°C° 1.9 mm 0 mps 662 mmHg 91%
    20:00 +19°C° 1.9 mm 0 mps 662 mmHg 91%
    21:00 +19°C° 1.9 mm 0 mps 663 mmHg 91%
    22:00 +19°C° 0.5 mm 0 mps 662 mmHg 91%
    23:00 +19°C° 0.5 mm 0 mps 662 mmHg 91%

    26 May, Saturday

    Time Temperature Precipitation Wind Pressure Humidity
    00:00 +19°C° 0.5 mm 0 mps 662 mmHg 91%
    01:00 +18°C° 0.1 mm 0 mps 661 mmHg 91%
    02:00 +18°C° 0.1 mm 0 mps 661 mmHg 91%
    03:00 +18°C° 0.1 mm 0 mps 661 mmHg 90%
    04:00 +18°C° 0 mm 0 mps 661 mmHg 90%
    05:00 +19°C° 0 mm 0 mps 661 mmHg 89%
    06:00 +19°C° 0 mm 0 mps 662 mmHg 88%
    07:00 +20°C° 0.1 mm 0 mps 662 mmHg 82%
    08:00 +24°C° 0.1 mm 1 mps 663 mmHg 77%
    09:00 +25°C° 0.1 mm 1 mps 663 mmHg 71%
    10:00 +25°C° 0.5 mm 1 mps 663 mmHg 71%
    11:00 +26°C° 0.5 mm 1 mps 663 mmHg 71%
    12:00 +26°C° 0.5 mm 1 mps 662 mmHg 70%
    13:00 +25°C° 2.2 mm 1 mps 662 mmHg 74%
    14:00 +24°C° 2.2 mm 1 mps 661 mmHg 78%
    15:00 +23°C° 2.2 mm 1 mps 661 mmHg 82%
    16:00 +23°C° 5.5 mm 1 mps 661 mmHg 86%
    17:00 +22°C° 5.5 mm 1 mps 661 mmHg 89%
    18:00 +19°C° 5.5 mm 0 mps 661 mmHg 92%
    19:00 +19°C° 2.4 mm 0 mps 662 mmHg 92%
    20:00 +19°C° 2.4 mm 0 mps 662 mmHg 91%
    21:00 +19°C° 2.4 mm 0 mps 662 mmHg 91%
    22:00 +19°C° 0.7 mm 0 mps 662 mmHg 91%
    23:00 +18°C° 0.7 mm 0 mps 662 mmHg 91%
    Show more